Hourly Data Report for October 12, 2013

All times are specified in Local Standard Time (LST). Add 1 hour to adjust for Daylight Saving Time where and when it is observed.

QIKIQTARJUAQ A
NUNAVUT

67°32'48.000" N
64°01'54.000" W
5.50 m
2400577
YVM

Download Data

Hourly Data (October 2013)
Hourly Data Report for October 12, 2013
Temp Definition
°C
Dew Point Temp Definition
°C
Rel Hum Definition
%
Wind Dir Definition
10's deg

Wind Spd Definition
km/h
Visibility Definition
km
Stn Press Definition
kPa
Hmdx Definition


Wind Chill Definition


Weather Definition


TIME
00:00 Legend Double Dagger -6.8 -12.0 67 20 21 16.1 102.05   -14 LegendNANA
01:00 Legend Double Dagger -7.6 -12.5 68 19 13 16.1 102.06   -13 LegendNANA
02:00 Legend Double Dagger -7.8 -13.4 64 20 11 16.1 102.05   -13 LegendNANA
03:00 Legend Double Dagger -7.7 -13.6 63 20 13 16.1 102.05   -13 LegendNANA
04:00 Legend Double Dagger -7.2 -12.1 68 20 17 16.1 102.06   -14 LegendNANA
05:00 Legend Double Dagger -6.7 -12.4 64 20 18 16.1 102.04   -13 LegendNANA
06:00 Legend Double Dagger -6.7 -11.3 70 20 21 16.1 101.95   -14 LegendNANA
07:00 Legend Double Dagger -5.9 -10.8 69 20 22 16.1 101.91   -13 LegendNANA
08:00 Legend Double Dagger -6.2 -10.3 73 22 15 16.1 101.92   -12 LegendNANA
09:00 Legend Double Dagger -4.7 -9.4 70 20 22 16.1 101.81   -12 LegendNANA
10:00 Legend Double Dagger -3.4 -10.2 60 20 21 16.1 101.70   -10 LegendNANA
11:00 Legend Double Dagger -2.9 -9.2 62 LegendMM 18 16.1 101.67   -9 LegendNANA
12:00 Legend Double Dagger -3.3 -7.8 71 22 17 16.1 101.61   -9 LegendNANA
13:00 Legend Double Dagger -3.5 -7.5 74 21 18 16.1 101.59   -9 LegendNANA
14:00 Legend Double Dagger -3.1 -7.0 75 20 21 16.1 101.64   -9 LegendNANA
15:00 Legend Double Dagger -2.6 -6.7 73 21 21 16.1 101.63   -9 LegendNANA
16:00 Legend Double Dagger -2.3 -6.0 76 20 18 16.1 101.64   -8 LegendNANA
17:00 Legend Double Dagger -1.8 -5.9 74 21 21 16.1 101.62   -8 LegendNANA
18:00 Legend Double Dagger -1.1 -6.0 69 21 21 16.1 101.56   -7 LegendNANA
19:00 Legend Double Dagger -0.8 -5.2 72 23 22 16.1 101.50   -7 LegendNANA
20:00 Legend Double Dagger -0.8 -4.6 76 22 22 16.1 101.40   -7 LegendNANA
21:00 Legend Double Dagger -0.2 -4.3 74 20 24 16.1 101.31   -6 LegendNANA
22:00 Legend Double Dagger -0.4 -5.4 69 22 22 16.1 101.26   -6 LegendNANA
23:00 Legend Double Dagger 0.0 -3.8 75 21 28 16.1 101.16   -6 LegendNANA

Notes on Data Quality.

Legend

  • E = Estimated
  • M = Missing
  • NA = Not Available
  • ‡ = Partner data that is not subject to review by the National Climate Archives
Date modified: